#timestamp,LO_Frequency,Hit,StdDev 
1671703215.1,286046997.5,N
1671703246.0,286046996.7,E
1671703255.0,286046998.7,N
1671703255.9,286046998.7,P
1671703275.8,286047000.5,P
1671703295.6,286047001.2,N
1671703315.4,286047002.4,N
1671703335.3,286047001.9,N
1671703355.1,286047001.4,N
1671703375.9,286047002.9,N
1671703395.7,286047005.3,Y
1671703415.5,286047004.4,P
1671703435.4,286047001.4,N
1671703455.2,286047001.8,N
1671703475.0,286047002.0,N
1671703476.0,286047002.0,N
1671703495.8,286047001.4,N
1671703515.6,286047002.1,N
1671703535.5,286047002.7,N
1671703555.3,286046999.9,N
1671703575.1,286046998.9,N
1671703595.9,286046998.6,N
1671703615.7,286047002.4,N
1671703635.5,286046999.9,N
1671703655.4,286046998.2,N
1671703675.2,286047000.5,N
1671703695.1,286046998.1,N
1671703696.0,286046998.1,N
1671703715.8,286046999.3,N
1671703735.6,286047000.7,N
1671703755.5,286046997.2,N
1671703775.3,286046997.3,N
1671703795.2,286046998.9,N
1671703815.9,286046998.2,N
1671703835.7,286047000.6,N
1671703855.6,286047003.6,N
1671703875.4,286047004.0,N
1671703895.3,286047001.3,N
1671703915.1,286047003.8,N
1671703916.0,286047003.8,N
1671703935.8,286047003.6,N
1671703955.7,286047005.8,N
1671703975.5,286047004.0,N
1671703995.3,286047000.1,N
1671704015.2,286046999.7,N
1671704035.0,286047001.8,N
1671704035.9,286047001.8,N
1671704055.8,286047001.3,N
1671704075.6,286047001.4,N
1671704095.4,286047005.4,N
1671704115.3,286047004.4,N
1671704135.1,286047001.5,N
1671704155.8,286047001.9,N
1671704175.7,286047001.1,N
1671704195.5,286047002.7,N
1671704215.4,286047000.5,N
1671704235.2,286047001.0,N
1671704255.0,286046998.1,N
1671704255.9,286046998.1,N
1671704275.8,286047000.8,N
1671704295.6,286046998.1,N
1671704315.5,286047000.0,N
1671704335.3,286046999.1,N
1671704355.1,286046995.0,N
1671704375.9,286046996.9,N
1671704395.7,286046999.5,N
1671704415.5,286046998.5,N
1671704435.4,286046999.3,N
1671704455.2,286046998.3,N
1671704475.0,286046998.4,N
1671704476.0,286046998.4,N
1671704495.8,286047001.1,N
1671704515.6,286046998.5,N
1671704535.5,286046999.7,N
1671704555.3,286047002.5,N
1671704575.2,286046999.7,N
1671704595.9,286047001.2,N
1671704615.7,286046999.4,N
1671704635.6,286046998.8,N
1671704655.4,286047001.2,N
1671704675.2,286047001.2,N
1671704695.1,286047001.0,N
1671704696.0,286047001.0,N
1671704715.8,286047002.0,N
1671704735.7,286047002.7,N
1671704755.5,286046999.8,N
1671704775.3,286047000.9,N
1671704795.2,286046998.8,N
1671704815.0,286046998.5,N
1671704815.9,286046998.5,N
1671704835.8,286046998.7,N
1671704855.6,286047000.7,N
1671704875.4,286047001.2,N
1671704895.3,286046999.8,N
1671704915.1,286047002.7,N
1671704935.8,286047000.9,N
1671704955.7,286046999.7,N
1671704975.5,286047000.2,N
1671704995.4,286047003.9,N
1671705015.2,286047004.3,N
1671705035.0,286047004.1,N
1671705035.9,286047004.1,N
1671705055.8,286047003.9,N
1671705075.6,286047001.9,N
1671705095.4,286047004.2,N
1671705115.3,286047004.1,N
1671705135.1,286047001.8,N
1671705155.9,286047002.8,N
1671705175.7,286047002.4,N
1671705195.5,286047000.5,N
1671705215.4,286047000.0,N
1671705235.2,286047000.6,N
1671705255.1,286047001.0,N
1671705256.0,286047001.0,N
1671705275.8,286047002.1,N
1671705295.6,286047001.9,N
1671705315.5,286047002.6,N
1671705335.3,286047000.2,N
1671705355.1,286047000.7,N
1671705375.9,286047000.1,N
1671705395.7,286047002.4,N
1671705415.6,286047002.4,N
1671705435.4,286046999.7,N
1671705455.2,286047000.1,N
1671705475.1,286046998.1,N
1671705476.0,286046998.1,N
1671705495.8,286046998.8,N
1671705515.6,286046998.0,N
1671705535.5,286046995.0,N
1671705555.3,286046996.4,N
1671705575.2,286046993.3,N
1671705595.9,286046998.0,N
1671705615.7,286046997.0,N
1671705635.6,286046999.2,N
1671705655.4,286046999.1,N
1671705675.2,286046998.2,N
1671705695.1,286046998.1,N
1671705696.0,286046998.1,N
1671705715.8,286047001.0,N
1671705735.7,286047000.5,N
1671705755.5,286046998.2,N
1671705775.3,286047000.9,N
1671705795.2,286047005.6,N
1671705815.0,286047004.0,N
1671705815.9,286047004.0,N
1671705835.8,286047000.1,N
1671705855.6,286047002.7,N
1671705875.4,286046999.9,N
1671705895.3,286046999.9,N
1671705915.1,286047000.1,N
1671705935.8,286047001.8,N
1671705955.7,286047002.4,N
1671705975.5,286046999.8,N
1671705995.4,286047000.9,N
1671706015.2,286047000.1,N
1671706035.0,286047000.4,N
1671706035.9,286047000.4,N
1671706055.8,286047000.8,N
1671706075.6,286047002.7,N
1671706095.4,286046998.2,N
1671706115.3,286046998.8,N
1671706135.1,286047001.0,N
1671706155.9,286046999.3,N
1671706175.7,286046999.4,N
1671706195.5,286046999.2,N
1671706215.4,286047000.9,N
1671706235.2,286046998.2,N
1671706255.1,286047000.7,N
1671706256.0,286047000.7,N
1671706275.8,286047002.8,N
1671706295.6,286047002.8,N
1671706315.5,286047002.8,N
1671706335.3,286047002.8,N
1671706355.2,286047002.7,N
1671706375.9,286047000.6,N
1671706395.7,286046999.9,N
1671706415.6,286047000.3,N
1671706435.4,286047000.8,N
1671706455.2,286046998.5,N
1671706475.1,286047000.6,N
1671706476.0,286047000.6,N
1671706495.8,286047001.1,N
1671706515.7,286047001.2,N
1671706535.5,286046999.8,N
1671706555.3,286047000.9,N
1671706575.2,286046998.3,N
1671706595.0,286046998.6,N
1671706595.9,286046998.6,N
1671706615.7,286046996.5,N
1671706635.6,286046999.3,N
1671706655.4,286046998.4,N
1671706675.3,286047000.9,N
1671706695.1,286047001.1,N
1671706696.0,286047001.1,N
1671706715.8,286047000.8,N
1671706735.7,286047000.5,N
1671706755.5,286046998.1,N
1671706775.4,286046998.3,N
1671706795.2,286046999.5,N
